Regional Weather Roundup
Issued by NWS

Home | Current Version | Previous Version | Text Only | Print | Product List | Glossary Off
Versions: 1 2 3 4 5 6 7 8 9 10 11 12 13 14 15 16 17 18 19 20 21 22 23 24 25 26 27 28 29 30 31 32 33 34 35 36 37 38 39 40 41 42 43 44 45 46 47 48 49 50

000
ASUS43 KLMK 282102
RWRKY
KENTUCKY REGIONAL WEATHER ROUNDUP
NATIONAL WEATHER SERVICE LOUISVILLE KY
500 PM EDT MON JUL 28 2014

NOTE "FAIR" INDICATES FEW OR NO CLOUDS BELOW 12,000 FEET
WITH NO SIGNIFICANT WEATHER AND/OR OBSTRUCTIONS TO VISIBILITY.

KYZ001>023-026-027-061>063-070>075-282200-
WESTERN AND SOUTH CENTRAL KENTUCKY

CITY           SKY/WX    TMP DP  RH WIND       PRES   REMARKS
PADUCAH        PTSUNNY   84  63  49 NW8G17    30.03F
HENDERSON      MOSUNNY   79  61  53 NW10      30.02S
OWENSBORO      MOSUNNY   80  59  48 NW13G21   30.02S
HOPKINSVILLE   MOSUNNY   81  58  46 NW15G22   30.01F
BOWLING GREEN  MOSUNNY   81  56  42 VRB7      30.00S
GLASGOW        MOSUNNY   79  57  47 NW8G18    29.99S
$$

KYZ024-025-028>034-038-045-046-053-282200-
NORTH CENTRAL KENTUCKY

CITY           SKY/WX    TMP DP  RH WIND       PRES   REMARKS
LOUISVILLE/SDF PTSUNNY   77  58  51 N13       29.99S
LOUISVILLE/LOU MOSUNNY   76  58  53 N12       30.00S
FORT KNOX      MOSUNNY   76  62  61 NW9       29.99S
$$

KYZ035>037-039>044-047>052-055>060-089>105-282200-
NORTHEAST KENTUCKY

CITY           SKY/WX    TMP DP  RH WIND       PRES   REMARKS
LEXINGTON      CLOUDY    72  59  63 NW9       30.01R
COVINGTON      NOT AVBL
FRANKFORT      CLOUDY    72  59  63 NW10      30.00S
$$

KYZ054-064>069-076>088-106>120-282200-
SOUTHEAST KENTUCKY

CITY           SKY/WX    TMP DP  RH WIND       PRES   REMARKS
JACKSON        PTSUNNY   71  58  63 NW8       29.99R
LONDON         PTSUNNY   77  60  55 N15       29.99R
SOMERSET       NOT AVBL
MIDDLESBORO    CLOUDY    74  60  63 N7        29.98S
MONTICELLO     PTCLDY    80  63  56 N9        30.00S
$$




USA.gov is the U.S. government's official web portal to all federal, state and local government web resources and services.